{"data":{"norad_id":66974,"epoch":"2026-05-24T19:24:34.086240Z","epoch_age_seconds":88684,"freshness":"FRESH","line1":"1 66974U 25288R   26144.80872785  .00015868  00000+0  58468-3 0  9990","line2":"2 66974  43.0003 313.1544 0001597 271.6536  88.4133 15.27593313 26933","mean_motion":15.27593313,"eccentricity":0.0001597,"inclination_deg":43.0003,"raan_deg":313.1544,"arg_perigee_deg":271.6536,"mean_anomaly_deg":88.4133,"bstar":0.00058468,"rev_number":2693,"period_min":94.265927177438,"perigee_km":481.91350736452,"apogee_km":484.10495747116,"semimajor_km":6861.1462324178,"source":"CELESTRAK","updated_at":"2026-05-25T13:38:21.424136Z"}}